Tracking 26492 objects as of 8-Dec-2022
HD Live streaming from Space Station
objects crossing your sky now

MOZHAYETS 4

Track MOZHAYETS 4 now!
10-day predictions
MOZHAYETS 4 is classified as:


NORAD ID: 27939
Int'l Code: 2003-042A
Perigee: 666.5 km
Apogee: 685.0 km
Inclination: 98.2 °
Period: 98.1 minutes
Semi major axis: 7046 km
RCS: 0.7646 m2 (medium)
Launch date: September 27, 2003
Source: Commonwealth of Independent States (former USSR) (CIS)
Launch site: PLESETSK MISSILE AND SPACE COMPLEX (PKMTR)

Uplink (MHz):
Downlink (MHz): 432.098/435.352
Beacon (MHz):
Mode:
Call sign:
Status: Unknown

aabbcc
Your satellite tracking list
Your tracking list is empty




NASA's NSSDC Master Catalog

Two Line Element Set (TLE):
1 27939U 03042A   22341.72321232  .00000859  00000-0  15965-3 0  9994
2 27939  98.2142 122.6897 0013097  26.7230 333.4648 14.67649318 26450
Source of the keplerian elements: Caltech